Flag for U.S.A. Weather past 2 weeks in Dayton, Ohio, U.S.A.

Now
29 °F

Sunny.


Feels Like: 23 °F
Forecast: 18 / 29 °F
Wind: 6 mph from Northeast

Location: Dayton / Wright-Patterson Air Force Base

Current Time: Mar 2, 2015 at 2:47:47 PM

Latest Report: Mar 2, 2015 at 1:58 PM


Visibility: 10 mi

Pressure: 30.52 "Hg

Humidity: 53%

Dew point: 13 °F

Location of DaytonLocation

Historic Weather in Dayton — Graph

°F

Dayton temperature yesterday

Maximum temperature yesterday: 32 °F (at 8:58 PM)
Minimum temperature yesterday: 23 °F (at 12:58 AM)
Average temperature yesterday: 28 °F

Past Weeks' High & Low Weather Summary

 TemperatureHumidityPressure
High32 °F (Mar 1, 8:58 PM)100% (Feb 21, 2:03 PM)30.80 "Hg (Feb 21, 2:03 PM)
Low-13 °F (Feb 24, 6:58 AM)39% (Feb 15, 3:58 PM)29.81 "Hg (Feb 18, 5:02 AM)
Average14 °F68%30.27 "Hg
* Reported Feb 15 12:58 PM — Mar 2 12:58 PM, Dayton, Weather by CustomWeather, © 2015

Note: Actual official high and low records may vary slightly from our data, if they occured in-between our weather recording intervals... More about our weather records

Advertising

Dayton weather history for previous 24 hours

 ConditionsComfort  
Time TempWeatherWind HumidityBarometerVisibility
12:58 PM
Mon, Mar 2
27 °FSunny.2 mph56%30.56 "Hg10 mi
11:58 AM26 °FSunny.5 mph59%30.57 "Hg10 mi
10:58 AM23 °FSunny.2 mph68%30.56 "Hg10 mi
9:58 AM21 °FSunny.6 mph71%30.56 "Hg10 mi
8:58 AM19 °FHigh level clouds.2 mph76%30.54 "Hg10 mi
7:58 AM16 °FOvercast.3 mph82%30.53 "Hg10 mi
6:58 AM18 °FMostly cloudy.5 mph82%30.50 "Hg10 mi
5:58 AM19 °FOvercast.14 mph80%30.48 "Hg10 mi
4:58 AM20 °FOvercast.7 mph79%30.44 "Hg10 mi
3:58 AM21 °FPassing clouds.7 mph81%30.41 "Hg10 mi
2:58 AM22 °FPassing clouds.10 mph78%30.39 "Hg10 mi
1:58 AM25 °FPassing clouds.12 mph81%30.38 "Hg10 mi
12:58 AM26 °FPassing clouds.12 mph81%30.36 "Hg10 mi
11:58 PM
Sun, Mar 1
28 °FPartly cloudy.13 mph83%30.35 "Hg10 mi
10:58 PM30 °FMostly cloudy.9 mph85%30.33 "Hg10 mi
9:58 PM32 °FOvercast.8 mph87%30.31 "Hg10 mi
8:58 PM32 °FMostly cloudy.9 mph90%30.31 "Hg10 mi
7:58 PMN/AFog.5 mphN/A30.29 "Hg6 mi
6:58 PM32 °FFog.3 mph93%30.27 "Hg5 mi
5:58 PM32 °FFog.5 mph94%30.29 "Hg3 mi
4:58 PM32 °FLight rain. Fog.3 mph95%30.28 "Hg3 mi
3:58 PM32 °FLight snow. Ice fog.5 mph96%30.29 "Hg1 mi
2:58 PM31 °FLight rain. Ice fog.5 mph96%30.30 "Hg1 mi
Weather by CustomWeather, © 2015

See weather overviewHow to use our weather pages